Time,TemperatureF,DewpointF,PressureIn,WindDirection,WindDirectionDegrees,WindSpeedMPH,WindSpeedGustMPH,Humidity,HourlyPrecipIn,Conditions,Clouds,dailyrainin,SoftwareType,DateUTC
2013-01-25 00:01:00,41.0,40.0,30.00,SSE,160,1.0,4.0,96,0.00,,,0.11,,2013-01-25 08:01:00,
2013-01-25 00:11:00,41.0,40.0,30.00,North,0,0.0,4.0,96,0.01,,,0.12,,2013-01-25 08:11:00,
2013-01-25 00:21:00,41.0,40.0,30.00,North,0,0.0,4.0,96,0.01,,,0.12,,2013-01-25 08:21:00,
2013-01-25 00:31:00,42.0,41.0,30.00,North,0,0.0,3.0,96,0.02,,,0.13,,2013-01-25 08:31:00,
2013-01-25 00:41:00,42.0,41.0,30.00,North,0,0.0,3.0,96,0.02,,,0.13,,2013-01-25 08:41:00,
2013-01-25 00:52:00,42.0,41.0,29.99,North,0,0.0,2.0,97,0.02,,,0.13,,2013-01-25 08:52:00,
2013-01-25 01:01:00,42.0,41.0,29.99,South,174,1.0,2.0,97,0.02,,,0.14,,2013-01-25 09:01:00,
2013-01-25 01:11:00,42.0,41.0,29.99,North,0,0.0,4.0,97,0.02,,,0.14,,2013-01-25 09:11:00,
2013-01-25 01:21:00,42.0,41.0,29.99,North,0,0.0,4.0,97,0.02,,,0.14,,2013-01-25 09:21:00,
2013-01-25 01:31:00,42.0,41.0,29.99,North,0,0.0,2.0,97,0.01,,,0.14,,2013-01-25 09:31:00,
2013-01-25 01:41:00,42.0,41.0,29.99,North,0,0.0,2.0,97,0.01,,,0.14,,2013-01-25 09:41:00,
2013-01-25 01:52:00,42.0,41.0,29.98,North,0,0.0,3.0,97,0.01,,,0.14,,2013-01-25 09:52:00,
2013-01-25 02:01:00,42.0,41.0,29.98,South,174,1.0,4.0,97,0.00,,,0.14,,2013-01-25 10:01:00,
2013-01-25 02:11:00,43.0,42.0,29.98,North,0,0.0,5.0,97,0.01,,,0.15,,2013-01-25 10:11:00,
2013-01-25 02:21:00,43.0,42.0,29.98,North,0,0.0,5.0,97,0.01,,,0.15,,2013-01-25 10:21:00,
2013-01-25 02:31:00,43.0,42.0,29.98,North,0,0.0,5.0,97,0.01,,,0.15,,2013-01-25 10:31:00,
2013-01-25 02:41:00,43.0,42.0,29.98,North,0,0.0,5.0,97,0.01,,,0.15,,2013-01-25 10:41:00,
2013-01-25 02:52:00,43.0,42.0,29.98,SE,131,1.0,3.0,97,0.01,,,0.15,,2013-01-25 10:52:00,
2013-01-25 03:01:00,43.0,42.0,29.99,North,0,0.0,4.0,97,0.01,,,0.15,,2013-01-25 11:01:00,
2013-01-25 03:11:00,43.0,42.0,29.99,North,0,0.0,4.0,97,0.01,,,0.15,,2013-01-25 11:11:00,
2013-01-25 03:21:00,43.0,42.0,29.98,North,0,0.0,1.0,97,0.00,,,0.15,,2013-01-25 11:21:00,
2013-01-25 03:31:00,43.0,42.0,29.98,North,0,0.0,2.0,97,0.00,,,0.15,,2013-01-25 11:31:00,
2013-01-25 03:41:00,43.0,42.0,29.98,North,0,0.0,2.0,97,0.00,,,0.15,,2013-01-25 11:41:00,
2013-01-25 03:52:00,43.0,42.0,29.98,North,0,0.0,2.0,97,0.00,,,0.15,,2013-01-25 11:52:00,
2013-01-25 04:01:00,43.0,42.0,29.98,North,0,0.0,3.0,97,0.00,,,0.15,,2013-01-25 12:01:00,
2013-01-25 04:11:00,43.0,42.0,29.98,North,0,0.0,3.0,97,0.00,,,0.15,,2013-01-25 12:11:00,
2013-01-25 04:21:00,43.0,42.0,29.98,North,0,0.0,1.0,97,0.00,,,0.15,,2013-01-25 12:21:00,
2013-01-25 04:31:00,43.0,42.0,29.98,North,0,0.0,4.0,97,0.00,,,0.15,,2013-01-25 12:31:00,
2013-01-25 04:41:00,43.0,42.0,29.98,North,0,0.0,4.0,97,0.00,,,0.15,,2013-01-25 12:41:00,
2013-01-25 04:53:00,43.0,42.0,29.98,North,0,0.0,2.0,97,0.00,,,0.15,,2013-01-25 12:53:00,
2013-01-25 05:01:00,44.0,43.0,29.98,North,0,0.0,1.0,97,0.00,,,0.15,,2013-01-25 13:01:00,
2013-01-25 05:11:00,44.0,43.0,29.98,North,0,0.0,1.0,97,0.00,,,0.15,,2013-01-25 13:11:00,
2013-01-25 05:21:00,44.0,43.0,29.98,SSE,168,2.0,5.0,98,0.00,,,0.15,,2013-01-25 13:21:00,
2013-01-25 05:31:00,44.0,43.0,29.98,South,172,2.0,7.0,98,0.00,,,0.15,,2013-01-25 13:31:00,
2013-01-25 05:42:00,44.0,43.0,29.98,South,172,2.0,7.0,98,0.00,,,0.15,,2013-01-25 13:42:00,
2013-01-25 05:52:00,44.0,43.0,29.98,South,180,5.0,10.0,98,0.00,,,0.15,,2013-01-25 13:52:00,
2013-01-25 06:01:00,45.0,44.0,29.98,South,180,5.0,10.0,98,0.00,,,0.15,,2013-01-25 14:01:00,
2013-01-25 06:11:00,45.0,44.0,29.98,South,180,5.0,10.0,98,0.00,,,0.15,,2013-01-25 14:11:00,
2013-01-25 06:22:00,45.0,44.0,29.98,South,177,3.0,10.0,97,0.00,,,0.15,,2013-01-25 14:22:00,
2013-01-25 06:32:00,45.0,44.0,29.97,South,187,6.0,10.0,97,0.00,,,0.15,,2013-01-25 14:32:00,
2013-01-25 06:41:00,45.0,44.0,29.97,South,187,6.0,10.0,97,0.00,,,0.15,,2013-01-25 14:41:00,
2013-01-25 06:53:00,45.0,44.0,29.97,South,191,6.0,12.0,97,0.00,,,0.15,,2013-01-25 14:53:00,
2013-01-25 07:01:00,45.0,44.0,29.98,South,188,5.0,13.0,97,0.00,,,0.15,,2013-01-25 15:01:00,
2013-01-25 07:11:00,45.0,44.0,29.98,South,188,5.0,13.0,97,0.00,,,0.15,,2013-01-25 15:11:00,
2013-01-25 07:21:00,45.0,44.0,29.98,SSW,193,6.0,11.0,97,0.00,,,0.15,,2013-01-25 15:21:00,
2013-01-25 07:31:00,45.0,44.0,29.98,South,177,4.0,17.0,96,0.00,,,0.15,,2013-01-25 15:31:00,
2013-01-25 07:41:00,45.0,44.0,29.98,South,177,4.0,17.0,96,0.00,,,0.15,,2013-01-25 15:41:00,
2013-01-25 07:52:00,45.0,44.0,29.98,South,185,4.0,13.0,96,0.00,,,0.15,,2013-01-25 15:52:00,
2013-01-25 08:02:00,45.0,44.0,29.98,South,180,5.0,10.0,95,0.00,,,0.15,,2013-01-25 16:02:00,
2013-01-25 08:11:00,45.0,44.0,29.98,South,180,5.0,10.0,95,0.00,,,0.15,,2013-01-25 16:11:00,
2013-01-25 08:21:00,45.0,44.0,29.98,South,186,5.0,12.0,95,0.00,,,0.15,,2013-01-25 16:21:00,
2013-01-25 08:31:00,45.0,44.0,29.98,South,175,4.0,7.0,95,0.00,,,0.15,,2013-01-25 16:31:00,
2013-01-25 08:41:00,45.0,44.0,29.98,South,175,4.0,7.0,95,0.00,,,0.15,,2013-01-25 16:41:00,
2013-01-25 08:52:00,45.0,43.0,29.98,SSW,195,5.0,11.0,94,0.00,,,0.15,,2013-01-25 16:52:00,
2013-01-25 09:01:00,45.0,43.0,29.98,South,180,2.0,9.0,94,0.00,,,0.15,,2013-01-25 17:01:00,
2013-01-25 09:11:00,45.0,43.0,29.98,South,180,2.0,9.0,94,0.00,,,0.15,,2013-01-25 17:11:00,
2013-01-25 09:21:00,45.0,43.0,29.98,SSW,195,2.0,10.0,94,0.00,,,0.15,,2013-01-25 17:21:00,
2013-01-25 09:31:00,45.0,43.0,29.99,North,0,0.0,6.0,94,0.00,,,0.15,,2013-01-25 17:31:00,
2013-01-25 09:42:00,45.0,43.0,29.99,North,0,0.0,6.0,94,0.00,,,0.15,,2013-01-25 17:42:00,
2013-01-25 09:53:00,45.0,43.0,29.99,SW,214,2.0,6.0,94,0.00,,,0.15,,2013-01-25 17:53:00,
2013-01-25 10:01:00,45.0,43.0,30.00,SSW,210,3.0,6.0,94,0.00,,,0.15,,2013-01-25 18:01:00,
2013-01-25 10:11:00,45.0,43.0,30.00,SSW,210,3.0,6.0,94,0.00,,,0.15,,2013-01-25 18:11:00,
2013-01-25 10:22:00,45.0,43.0,30.00,SW,214,1.0,3.0,93,0.00,,,0.15,,2013-01-25 18:22:00,
2013-01-25 10:32:00,45.0,43.0,30.00,North,0,0.0,1.0,93,0.00,,,0.15,,2013-01-25 18:32:00,
2013-01-25 10:41:00,45.0,43.0,30.00,North,0,0.0,1.0,93,0.00,,,0.15,,2013-01-25 18:41:00,
2013-01-25 10:52:00,46.0,44.0,30.00,WSW,246,1.0,3.0,93,0.00,,,0.15,,2013-01-25 18:52:00,
2013-01-25 11:01:00,46.0,44.0,30.00,WSW,246,1.0,4.0,93,0.00,,,0.15,,2013-01-25 19:01:00,
2013-01-25 11:11:00,46.0,44.0,30.00,WSW,246,1.0,4.0,93,0.00,,,0.15,,2013-01-25 19:11:00,
2013-01-25 11:21:00,46.0,44.0,30.00,SW,231,1.0,4.0,94,0.00,,,0.15,,2013-01-25 19:21:00,
2013-01-25 11:31:00,46.0,44.0,29.99,North,0,0.0,3.0,93,0.00,,,0.15,,2013-01-25 19:31:00,
2013-01-25 11:41:00,46.0,44.0,29.99,North,0,0.0,3.0,93,0.00,,,0.15,,2013-01-25 19:41:00,
2013-01-25 11:52:00,46.0,44.0,29.99,North,0,0.0,1.0,93,0.00,,,0.15,,2013-01-25 19:52:00,
2013-01-25 12:01:00,47.0,45.0,29.98,South,187,1.0,3.0,92,0.00,,,0.15,,2013-01-25 20:01:00,
2013-01-25 12:11:00,47.0,45.0,29.98,South,187,1.0,3.0,92,0.00,,,0.15,,2013-01-25 20:11:00,
2013-01-25 12:21:00,47.0,45.0,29.97,South,172,1.0,5.0,92,0.00,,,0.15,,2013-01-25 20:21:00,
2013-01-25 12:31:00,47.0,45.0,29.97,South,172,2.0,5.0,91,0.00,,,0.15,,2013-01-25 20:31:00,
2013-01-25 12:41:00,47.0,45.0,29.97,South,172,2.0,5.0,91,0.00,,,0.15,,2013-01-25 20:41:00,
2013-01-25 12:52:00,47.0,44.0,29.96,SSW,201,3.0,4.0,90,0.00,,,0.15,,2013-01-25 20:52:00,
2013-01-25 13:01:00,47.0,43.0,29.95,SSW,207,5.0,8.0,86,0.00,,,0.15,,2013-01-25 21:01:00,
2013-01-25 13:11:00,47.0,43.0,29.95,SSW,207,5.0,8.0,86,0.00,,,0.15,,2013-01-25 21:11:00,
2013-01-25 13:21:00,48.0,43.0,29.95,SSW,213,1.0,7.0,84,0.00,,,0.15,,2013-01-25 21:21:00,
2013-01-25 13:32:00,48.0,43.0,29.94,SW,227,2.0,10.0,82,0.00,,,0.15,,2013-01-25 21:32:00,
2013-01-25 13:41:00,48.0,43.0,29.94,SW,227,2.0,10.0,82,0.00,,,0.15,,2013-01-25 21:41:00,
2013-01-25 13:52:00,49.0,44.0,29.94,South,182,1.0,7.0,84,0.00,,,0.15,,2013-01-25 21:52:00,
2013-01-25 14:01:00,50.0,44.0,29.93,SW,231,3.0,7.0,80,0.00,,,0.15,,2013-01-25 22:01:00,
2013-01-25 14:11:00,49.0,44.0,29.93,South,191,2.0,4.0,82,0.00,,,0.15,,2013-01-25 22:11:00,
2013-01-25 14:21:00,49.0,44.0,29.93,South,191,2.0,4.0,82,0.00,,,0.15,,2013-01-25 22:21:00,
2013-01-25 14:31:00,50.0,41.0,29.93,SW,216,2.0,5.0,72,0.00,,,0.15,,2013-01-25 22:31:00,
2013-01-25 14:41:00,50.0,41.0,29.93,SW,216,2.0,5.0,72,0.00,,,0.15,,2013-01-25 22:41:00,
2013-01-25 14:52:00,51.0,42.0,29.92,South,177,1.0,4.0,72,0.00,,,0.15,,2013-01-25 22:52:00,
2013-01-25 15:01:00,50.0,42.0,29.92,North,0,0.0,4.0,73,0.00,,,0.15,,2013-01-25 23:01:00,
2013-01-25 15:11:00,50.0,42.0,29.92,North,0,0.0,4.0,73,0.00,,,0.15,,2013-01-25 23:11:00,
2013-01-25 15:21:00,50.0,42.0,29.91,South,178,2.0,5.0,74,0.00,,,0.15,,2013-01-25 23:21:00,
2013-01-25 15:31:00,50.0,42.0,29.91,SSE,168,1.0,7.0,73,0.00,,,0.15,,2013-01-25 23:31:00,
2013-01-25 15:41:00,50.0,42.0,29.91,SSE,168,1.0,7.0,73,0.00,,,0.15,,2013-01-25 23:41:00,
2013-01-25 15:52:00,50.0,42.0,29.91,South,169,2.0,5.0,74,0.00,,,0.15,,2013-01-25 23:52:00,
2013-01-25 16:01:00,50.0,42.0,29.91,SE,144,1.0,7.0,74,0.00,,,0.15,,2013-01-26 00:01:00,
2013-01-25 16:11:00,50.0,42.0,29.91,SE,144,1.0,7.0,74,0.00,,,0.15,,2013-01-26 00:11:00,
2013-01-25 16:22:00,49.0,41.0,29.91,SSE,168,1.0,5.0,75,0.00,,,0.15,,2013-01-26 00:22:00,
2013-01-25 16:31:00,49.0,42.0,29.90,SSE,164,3.0,5.0,76,0.00,,,0.15,,2013-01-26 00:31:00,
2013-01-25 16:42:00,49.0,42.0,29.90,SSE,164,3.0,5.0,76,0.00,,,0.15,,2013-01-26 00:42:00,
2013-01-25 16:53:00,48.0,41.0,29.90,South,179,2.0,5.0,77,0.00,,,0.15,,2013-01-26 00:53:00,
2013-01-25 17:01:00,48.0,42.0,29.90,SSW,207,1.0,7.0,79,0.00,,,0.14,,2013-01-26 01:01:00,
2013-01-25 17:11:00,48.0,42.0,29.90,SSW,207,1.0,7.0,79,0.00,,,0.14,,2013-01-26 01:11:00,
2013-01-25 17:22:00,47.0,41.0,29.90,South,177,2.0,5.0,79,0.00,,,0.13,,2013-01-26 01:22:00,
2013-01-25 17:31:00,47.0,41.0,29.90,South,175,2.0,6.0,81,0.00,,,0.12,,2013-01-26 01:31:00,
2013-01-25 17:41:00,47.0,41.0,29.90,South,175,2.0,6.0,81,0.00,,,0.12,,2013-01-26 01:41:00,
2013-01-25 17:52:00,47.0,42.0,29.89,South,177,1.0,6.0,83,0.00,,,0.11,,2013-01-26 01:52:00,
2013-01-25 18:01:00,46.0,41.0,29.89,South,175,3.0,6.0,83,0.00,,,0.09,,2013-01-26 02:01:00,
2013-01-25 18:11:00,46.0,41.0,29.89,South,175,3.0,6.0,83,0.00,,,0.09,,2013-01-26 02:11:00,
2013-01-25 18:21:00,46.0,41.0,29.89,South,169,1.0,5.0,84,0.00,,,0.08,,2013-01-26 02:21:00,
2013-01-25 18:32:00,46.0,42.0,29.89,North,0,0.0,1.0,86,0.00,,,0.07,,2013-01-26 02:32:00,
2013-01-25 18:41:00,46.0,42.0,29.89,North,0,0.0,1.0,86,0.00,,,0.07,,2013-01-26 02:41:00,
2013-01-25 18:52:00,45.0,41.0,29.89,North,0,0.0,1.0,87,0.00,,,0.06,,2013-01-26 02:52:00,
2013-01-25 19:01:00,45.0,41.0,29.89,South,172,2.0,3.0,87,0.00,,,0.06,,2013-01-26 03:01:00,
2013-01-25 19:11:00,45.0,41.0,29.89,South,172,2.0,3.0,87,0.00,,,0.06,,2013-01-26 03:11:00,
2013-01-25 19:21:00,45.0,41.0,29.89,South,181,4.0,7.0,86,0.00,,,0.06,,2013-01-26 03:21:00,
2013-01-25 19:31:00,45.0,41.0,29.89,South,178,2.0,7.0,85,0.00,,,0.06,,2013-01-26 03:31:00,
2013-01-25 19:42:00,45.0,41.0,29.89,South,178,2.0,7.0,85,0.00,,,0.06,,2013-01-26 03:42:00,
2013-01-25 19:52:00,45.0,41.0,29.89,South,179,1.0,10.0,86,0.00,,,0.06,,2013-01-26 03:52:00,
2013-01-25 20:01:00,45.0,40.0,29.89,SW,215,4.0,10.0,82,0.00,,,0.06,,2013-01-26 04:01:00,
2013-01-25 20:12:00,45.0,40.0,29.89,SW,215,4.0,10.0,82,0.00,,,0.06,,2013-01-26 04:12:00,
2013-01-25 20:21:00,45.0,40.0,29.88,South,187,3.0,10.0,81,0.00,,,0.05,,2013-01-26 04:21:00,
2013-01-25 20:32:00,45.0,40.0,29.88,SSW,199,3.0,10.0,82,0.00,,,0.05,,2013-01-26 04:32:00,
2013-01-25 20:42:00,45.0,40.0,29.88,SSW,199,3.0,10.0,82,0.00,,,0.05,,2013-01-26 04:42:00,
2013-01-25 20:52:00,45.0,40.0,29.89,South,182,5.0,13.0,82,0.00,,,0.05,,2013-01-26 04:52:00,
2013-01-25 21:01:00,44.0,39.0,29.88,South,187,2.0,7.0,82,0.00,,,0.05,,2013-01-26 05:01:00,
2013-01-25 21:12:00,44.0,39.0,29.88,South,187,2.0,7.0,82,0.00,,,0.05,,2013-01-26 05:12:00,
2013-01-25 21:22:00,44.0,39.0,29.88,South,186,5.0,11.0,83,0.00,,,0.05,,2013-01-26 05:22:00,
2013-01-25 21:32:00,44.0,39.0,29.87,South,178,5.0,9.0,84,0.00,,,0.05,,2013-01-26 05:32:00,
2013-01-25 21:41:00,44.0,39.0,29.87,South,178,5.0,9.0,84,0.00,,,0.05,,2013-01-26 05:41:00,
2013-01-25 21:52:00,43.0,39.0,29.87,South,177,2.0,7.0,86,0.00,,,0.05,,2013-01-26 05:52:00,
2013-01-25 22:02:00,43.0,39.0,29.87,North,0,0.0,5.0,85,0.00,,,0.05,,2013-01-26 06:02:00,
2013-01-25 22:11:00,43.0,39.0,29.87,North,0,0.0,5.0,85,0.00,,,0.05,,2013-01-26 06:11:00,
2013-01-25 22:21:00,43.0,38.0,29.87,SSW,201,3.0,5.0,84,0.00,,,0.04,,2013-01-26 06:21:00,
2013-01-25 22:31:00,43.0,39.0,29.88,South,180,3.0,10.0,86,0.00,,,0.04,,2013-01-26 06:31:00,
2013-01-25 22:41:00,43.0,39.0,29.88,South,180,3.0,10.0,86,0.00,,,0.04,,2013-01-26 06:41:00,
2013-01-25 22:52:00,43.0,39.0,29.87,South,187,3.0,6.0,86,0.00,,,0.04,,2013-01-26 06:52:00,
2013-01-25 23:01:00,43.0,39.0,29.87,South,172,2.0,7.0,86,0.00,,,0.04,,2013-01-26 07:01:00,
2013-01-25 23:11:00,43.0,39.0,29.87,South,172,2.0,7.0,86,0.00,,,0.04,,2013-01-26 07:11:00,
2013-01-25 23:21:00,43.0,39.0,29.87,South,172,2.0,7.0,86,0.00,,,0.04,,2013-01-26 07:21:00,
2013-01-25 23:33:00,42.0,38.0,29.87,South,187,2.0,6.0,85,0.00,,,0.04,,2013-01-26 07:33:00,
2013-01-25 23:41:00,42.0,38.0,29.87,South,187,2.0,6.0,85,0.00,,,0.04,,2013-01-26 07:41:00,
2013-01-25 23:51:00,43.0,39.0,29.87,SSE,166,2.0,7.0,85,0.00,,,0.04,,2013-01-26 07:51:00,